Weather observations for the past three days for
Grand Rapids, Gerald R. Ford International Airport
Metric (Imperial)
Date Time (edt) Wind (kph) Vis. (km) Weather Sky Cond. Temperature (ºC) Relative Humidity Wind Chill (°C) Heat Index (°C) Pressure Precipitation (cm)
Air Dwpt 6 hour altimeter (cm) sea level (mb) 1 hr 3 hr 6 hr
Max. Min.
25 00:53 S 7 16.09 A Few Clouds FEW120 21.1 13.9 64% 75.57 1006.9
24 23:53 S 9 16.09 Overcast BKN110 OVC230 21.7 13.9 61% 75.57 1007.1
24 22:53 S 13 16.09 Overcast SCT110 OVC230 23.3 13.3 54% 75.57 1006.9
24 21:53 S 15 16.09 Overcast SCT065 OVC220 23.9 13.9 54% 25 75.62 1007.5
24 20:53 SE 11 16.09 Overcast FEW140 OVC200 23.3 13.3 54% 75.49 1006.2
24 19:53 SE 13 16.09 Overcast SCT140 BKN170 OVC250 24.4 13.3 27.8 24.4 50% 26 75.51 1006.4
24 18:53 SE 15 16.09 Overcast FEW050 SCT140 BKN180 OVC250 25.6 13.3 47% 26 75.54 1006.7
24 17:53 SE 17 16.09 Overcast FEW055 SCT100 BKN140 OVC250 26.1 12.8 44% 26 75.54 1006.9
24 16:53 SE 19 16.09 Overcast FEW055 SCT100 OVC250 26.1 12.2 42% 26 75.69 1008.9
24 15:53 S 17 16.09 Mostly Cloudy SCT100 BKN200 26.1 11.7 41% 26 75.77 1010.0
24 14:53 S 15 16.09 Overcast FEW075 OVC200 26.7 10.6 37% 26 75.87 1011.1
24 13:53 S 19 16.09 Mostly Cloudy BKN200 25.6 10.6 26.1 14.4 39% 26 75.92 1011.9
24 12:53 S 19 16.09 Mostly Cloudy BKN200 26.1 8.9 34% 26 75.9 1011.6
24 11:53 SE 11 16.09 Mostly Cloudy BKN200 24.4 8.9 37% 25 75.95 1012.4
24 10:53 S 13 16.09 Mostly Cloudy BKN250 22.8 9.4 43% 75.95 1012.3
24 09:53 S 9 16.09 Mostly Cloudy BKN230 20 9.4 51% 75.95 1012.4
24 08:53 S 7 16.09 Mostly Cloudy BKN250 16.7 10 65% 75.97 1012.5
24 07:53 Calm 16.09 Mostly Cloudy BKN250 14.4 10.6 14.4 10.6 78% 75.92 1011.9
24 06:53 E 6 16.09 Mostly Cloudy BKN250 11.1 8.9 86% 75.92 1012.0
24 05:53 E 6 16.09 A Few Clouds FEW250 11.1 8.3 83% 75.95 1012.2
24 04:53 SE 6 16.09 Fair CLR 10.6 8.3 86% 75.97 1012.6
24 03:53 Calm 16.09 Fair CLR 11.7 8.9 83% 75.97 1012.7
24 02:53 Calm 16.09 Fair CLR 12.2 7.8 75% 75.97 1012.7
24 01:53 Calm 16.09 Fair CLR 12.2 8.3 22.2 12.2 77% 76 1013.0
24 00:53 E 6 16.09 Fair CLR 12.8 8.3 74% 76 1013.0
23 23:53 Calm 16.09 A Few Clouds FEW250 14.4 7.8 65% 76 1012.9
23 22:53 S 7 16.09 A Few Clouds FEW250 15.6 7.2 58% 76 1013.1
23 21:53 S 6 16.09 A Few Clouds FEW100 FEW250 17.2 6.7 50% 76 1012.8
23 20:53 W 9 16.09 A Few Clouds FEW080 FEW250 21.1 3.9 32% 75.97 1012.4
23 19:53 W 17 16.09 A Few Clouds FEW080 FEW250 22.8 3.9 25 22.8 29% 75.97 1012.4
23 18:53 SW 15 16.09 A Few Clouds FEW080 FEW250 23.9 4.4 28% 25 75.97 1012.7
23 17:53 W 20 G 31 16.09 A Few Clouds FEW080 FEW250 24.4 5 29% 25 76 1013.0
23 16:53 NW 11 16.09 A Few Clouds FEW070 FEW250 24.4 4.4 27% 25 76 1012.8
23 15:53 SW 20 16.09 A Few Clouds FEW070 FEW250 23.9 5 29% 25 76.05 1013.5
23 14:53 W 26 G 35 16.09 A Few Clouds FEW065 FEW250 24.4 4.4 27% 25 76.05 1013.5
23 13:53 W 19 G 30 16.09 A Few Clouds FEW065 FEW250 23.9 5 23.9 15.6 29% 25 76.05 1013.6
23 12:53 Vrbl 7 G 31 16.09 Partly Cloudy FEW060 SCT250 22.8 7.2 37% 76.05 1013.6
23 11:53 Vrbl 11 G 30 16.09 Partly Cloudy FEW055 SCT250 22.8 8.3 40% 76.07 1013.9
23 10:53 W 20 G 30 16.09 Partly Cloudy SCT250 21.1 9.4 47% 76.07 1013.8
23 09:53 W 13 16.09 Partly Cloudy SCT250 19.4 10.6 57% 76.05 1013.7
23 08:53 W 13 16.09 Partly Cloudy SCT250 17.2 10.6 65% 76.05 1013.8
23 07:53 SW 13 16.09 A Few Clouds FEW250 15.6 10 15.6 12.2 70% 76.02 1013.3
23 06:53 SW 11 16.09 Fair CLR 13.3 8.9 75% 76 1013.0
23 05:53 SW 9 16.09 Fair CLR 12.8 8.3 74% 75.95 1012.3
23 04:53 SW 9 16.09 Fair CLR 13.3 8.3 72% 75.95 1012.4
23 03:53 SW 11 16.09 Fair CLR 14.4 8.3 67% 75.95 1012.3
23 02:53 SW 13 16.09 Fair CLR 15 7.8 62% 75.92 1012.1
23 01:53 SW 11 16.09 Fair CLR 15 8.3 20 15 64% 75.92 1011.8
23 00:53 SW 17 16.09 Fair CLR 15.6 8.3 62% 75.9 1011.5
22 23:53 W 11 16.09 Fair CLR 15.6 8.9 65% 75.84 1011.0
22 22:53 SW 13 16.09 Fair CLR 16.1 10 67% 75.84 1010.9
22 21:53 SW 15 16.09 A Few Clouds FEW100 17.2 10 63% 75.79 1010.1
22 20:53 SW 20 16.09 A Few Clouds FEW040 FEW100 18.9 9.4 54% 75.77 1009.7
22 19:53 W 30 G 48 16.09 A Few Clouds FEW040 FEW100 20 10 22.2 20 53% 75.72 1009.1
22 18:53 W 35 G 50 16.09 A Few Clouds and Breezy FEW040 20 10.6 55% 75.62 1007.8
22 17:53 W 39 G 52 16.09 Partly Cloudy and Breezy SCT042 21.1 11.1 53% 75.62 1007.7
22 16:53 SW 39 G 54 16.09 Partly Cloudy and Breezy SCT045 21.7 11.7 53% 75.62 1007.6
22 15:53 SW 37 G 57 16.09 Partly Cloudy and Breezy SCT040 22.2 12.2 53% 75.62 1007.5
22 14:53 W 35 G 54 16.09 Partly Cloudy and Breezy SCT038 21.7 12.2 55% 75.54 1006.8
22 13:53 W 35 G 48 16.09 Partly Cloudy and Breezy SCT035 20.6 12.8 21.7 19.4 61% 75.57 1006.9
22 12:53 W 26 G 46 16.09 Mostly Cloudy BKN030 21.1 13.3 61% 75.57 1006.8
22 11:53 W 35 G 50 16.09 Mostly Cloudy and Breezy BKN026 20.6 13.3 63% 75.54 1006.7
22 10:53 W 37 G 52 16.09 Mostly Cloudy and Breezy BKN028 19.4 13.3 68% 75.51 1006.3
22 09:53 W 28 G 48 16.09 Mostly Cloudy BKN029 20.6 14.4 68% 75.44 1005.3
22 08:53 W 39 G 52 16.09 Mostly Cloudy and Breezy BKN027 BKN055 20 14.4 70% 75.39 1004.6
22 07:53 W 35 G 48 16.09 Partly Cloudy and Breezy SCT027 SCT055 SCT250 21.1 15.6 26.1 21.1 71% 75.31 1003.6
22 06:53 SW 31 G 48 16.09 Mostly Cloudy BKN055 BKN250 22.8 16.7 69% 75.26 1002.8
22 05:53 SW 46 G 63 16.09 Mostly Cloudy and Windy BKN038 BKN250 23.9 16.7 64% 25 75.26 1002.5
22 04:53 S 19 16.09 Overcast OVC055 24.4 17.8 67% 25 75.23 1002.3
22 03:53 S 19 G 35 16.09 Fair CLR 25 17.8 64% 26 75.21 1002.1
22 02:53 S 22 G 39 16.09 Fair CLR 25.6 17.8 62% 27 75.23 1002.2
22 01:53 S 28 G 46 16.09 A Few Clouds FEW070 26.1 17.8 27.2 22.8 60% 27 75.29 1002.9
Date Time (edt) Wind (kph) Vis. (km) Weather Sky Cond. Air Dwpt Max. Min. Relative Humidity Wind Chill (°C) Heat Index (°C) altimeter (cm) sea level (mb) 1 hr 3 hr 6 hr
6 hour
Temperature (ºC) Pressure Precipitation (cm)